Regional Weather Roundup
Issued by NWS

Home | Current Version | Previous Version | Text Only | Print | Product List | Glossary On
Versions: 1 2 3 4 5 6 7 8 9 10 11 12 13 14 15 16 17 18 19 20 21 22 23 24 25 26 27 28 29 30 31 32 33 34 35 36 37 38 39 40 41 42 43 44 45 46 47 48 49 50
000
ASUS43 KBIS 010010
RWRND

NORTH DAKOTA REGIONAL WEATHER ROUNDUP
NATIONAL WEATHER SERVICE BISMARCK ND
700 PM CDT THU JUL 31 2014

NOTE: "FAIR" INDICATES FEW OR NO CLOUDS BELOW 12,000 FEET WITH NO
SIGNIFICANT WEATHER AND/OR OBSTRUCTIONS TO VISIBILITY.


NDZ001>003-009>011-017-010100-
NORTHWEST NORTH DAKOTA

CITY           SKY/WX    TMP DP  RH WIND       PRES   REMARKS
WILLISTON      SUNNY     87  56  34 E15       29.99F
6HR MIN TEMP:  77; 6HR MAX TEMP:  90; 6HR PCP:  0.02;

MINOT          SUNNY     81  53  37 VRB3      30.03F
MINOT AFB      MOSUNNY   80  56  43 S5        30.03F
$$

NDZ018>021-031>035-040>046-010100-
SOUTHWEST NORTH DAKOTA

CITY           SKY/WX    TMP DP  RH WIND       PRES   REMARKS
BISMARCK       SUNNY     85  49  28 SE7       30.03F
6HR MIN TEMP:  82; 6HR MAX TEMP:  88;

DICKINSON      SUNNY     84  58  40 E8        30.03F
GARRISON         N/A     81  57  43 E5        30.04F
6HR MIN TEMP:  78; 6HR MAX TEMP:  82;

HETTINGER ARPT SUNNY     86  52  30 NE8       30.06F
$$

NDZ004>008-012>016-024-026-027-054-010100-
NORTHEAST NORTH DAKOTA

CITY           SKY/WX    TMP DP  RH WIND       PRES   REMARKS
GRAND FORKS    MOSUNNY   82  62  50 N5        29.98F
GRND FRKS AFB  MOSUNNY   80  61  53 NE3       30.00F
DEVILS LAKE    SUNNY     81  55  41 NW6       30.02S
$$

NDZ022-023-025-028>030-036>039-047>053-010100-
SOUTHEAST NORTH DAKOTA

CITY           SKY/WX    TMP DP  RH WIND       PRES   REMARKS
FARGO          SUNNY     82  59  45 NE6       29.99F
6HR MIN TEMP:  80; 6HR MAX TEMP:  85;

JAMESTOWN      SUNNY     80  58  46 NE3       30.03F
$$



USA.gov is the U.S. government's official web portal to all federal, state and local government web resources and services.